Weather History for Hurlburt Field, FL

Change the Weather History Date:

Sunday, May 12, 2013

  Actual Average Record
Temperature  
Mean Temperature 72 °F -  
Max Temperature 81 °F 80 °F 89 °F (2007)
Min Temperature 60 °F 62 °F 55 °F (2008)
Cooling Degree Days 6    
Growing Degree Days 22 (Base 50)    
Moisture  
Dew Point 64 °F    
Average Humidity 84    
Maximum Humidity 100    
Minimum Humidity 49    
Precipitation  
Precipitation 0.00 in - - ()
Sea Level Pressure  
Sea Level Pressure 30.03 in    
Wind  
Wind Speed 5 mph (NNW)    
Max Wind Speed 14 mph    
Max Gust Speed 17 mph    
Visibility 9 miles    
Events      
Averages and records for this station are not official NWS values.
T = Trace of Precipitation, MM = Missing Value Source: NWS Daily Summary

Daily Weather History Graph

Daily Weather History Graph

Search for Another Location

Airport:

Trip Planner

Search our weather history database for the weather conditions in past years. The results will help you decide how hot, cold, wet, or windy it might be!

Date:

Astronomy

May. 12, 2013 Rise Set
Actual Time 5:54 AM CDT 7:32 PM CDT
Civil Twilight 5:28 AM CDT 7:58 PM CDT
Nautical Twilight 4:56 AM CDT 8:29 PM CDT
Astronomical Twilight 4:23 AM CDT 9:02 PM CDT
Moon 7:51 AM CDT (5/12) 9:56 PM CDT (5/12)
Length of Visible Light 14h 30m
Length of Day
13h 37m
Waxing Crescent, 7% of the Moon is Illuminated
May 12
Waxing Crescent
May 17
First Quarter
May 24
Full
May 31
Last Quarter
Jun 8
New

Hourly Weather History & Observations

Time (CDT) Temp. Heat Index Dew Point Humidity Pressure Visibility Wind Dir Wind Speed Gust Speed Precip Events Conditions
12:58 AM 67.5 °F - 67.5 °F 100% 30.00 in 10.0 mi WNW 2.3 mph - N/A   Clear
1:58 AM 66.9 °F - 66.9 °F 100% 29.99 in 10.0 mi NW 1.2 mph - N/A   Clear
2:08 AM 66.2 °F - 66.2 °F 100% 29.98 in 8.0 mi Calm Calm - N/A   Clear
2:18 AM 66.2 °F - 66.2 °F 100% 29.97 in 10.0 mi Calm Calm - N/A   Clear
2:48 AM 66.2 °F - 66.2 °F 100% 29.97 in 7.0 mi Calm Calm - N/A   Clear
2:58 AM 66.4 °F - 66.4 °F 100% 29.99 in 5.0 mi Calm Calm - N/A   Clear
3:03 AM 66.2 °F - 66.2 °F 100% 29.98 in 10.0 mi NNW 1.2 mph - N/A   Clear
3:33 AM 64.4 °F - 64.4 °F 100% 29.97 in 8.0 mi NNW 5.8 mph - N/A   Partly Cloudy
3:43 AM 64.4 °F - 60.8 °F 88% 29.97 in 5.0 mi NNW 5.8 mph - N/A   Haze
3:48 AM 66.2 °F - 62.6 °F 88% 29.98 in 4.0 mi NNW 6.9 mph - N/A   Mostly Cloudy
3:58 AM 66.0 °F - 66.0 °F 100% 29.99 in 3.0 mi NW 9.2 mph - N/A   Overcast
4:03 AM 66.2 °F - 66.2 °F 100% 29.98 in 2.5 mi NW 8.1 mph - N/A   Overcast
4:08 AM 66.2 °F - 66.2 °F 100% 29.98 in 3.0 mi NNW 8.1 mph - N/A   Overcast
4:13 AM 66.2 °F - 66.2 °F 100% 29.98 in 5.0 mi NNW 9.2 mph - N/A   Overcast
4:38 AM 66.2 °F - 66.2 °F 100% 29.99 in 10.0 mi NNW 8.1 mph - N/A   Overcast
4:43 AM 66.2 °F - 66.2 °F 100% 29.99 in 10.0 mi NNW 8.1 mph - N/A   Overcast
4:53 AM 66.2 °F - 66.2 °F 100% 30.00 in 10.0 mi NNW 5.8 mph - N/A   Overcast
4:58 AM 65.8 °F - 65.8 °F 100% 30.00 in 10.0 mi NNW 5.8 mph - N/A   Overcast
5:13 AM 64.4 °F - 64.4 °F 100% 30.00 in 10.0 mi NNW 6.9 mph - N/A   Scattered Clouds
5:58 AM 63.9 °F - 63.9 °F 100% 30.02 in 10.0 mi North 3.5 mph - N/A   Clear
6:58 AM 64.6 °F - 64.6 °F 100% 30.05 in 10.0 mi NNE 3.5 mph - N/A   Clear
7:58 AM 67.3 °F - 67.3 °F 100% 30.06 in 10.0 mi NNE 9.2 mph - N/A   Clear
8:58 AM 71.8 °F - 71.2 °F 98% 30.07 in 10.0 mi NNE 9.2 mph - N/A   Clear
9:58 AM 74.7 °F - 67.6 °F 79% 30.08 in 10.0 mi North 8.1 mph - N/A   Clear
10:58 AM 75.7 °F - 65.8 °F 71% 30.08 in 10.0 mi North 9.2 mph - N/A   Clear
11:58 AM 77.7 °F - 63.3 °F 61% 30.07 in 10.0 mi North 12.7 mph 17.3 mph N/A   Partly Cloudy
12:58 PM 79.7 °F - 60.1 °F 51% 30.07 in 10.0 mi NNW 6.9 mph - N/A   Mostly Cloudy
1:58 PM 77.9 °F - 66.2 °F 67% 30.06 in 10.0 mi Variable 4.6 mph - N/A   Scattered Clouds
2:12 PM 80.6 °F 81.8 °F 62.6 °F 54% 30.05 in 10.0 mi Variable 5.8 mph - N/A   Light Drizzle
2:15 PM 80.6 °F 81.8 °F 62.6 °F 54% 30.04 in 10.0 mi North 9.2 mph - N/A   Partly Cloudy
2:58 PM 80.8 °F 81.4 °F 59.9 °F 49% 30.05 in 10.0 mi North 10.4 mph - 0.00 in   Partly Cloudy
3:58 PM 79.5 °F - 60.6 °F 52% 30.04 in 10.0 mi North 11.5 mph - N/A   Clear
4:58 PM 79.0 °F - 61.9 °F 56% 30.04 in 10.0 mi North 13.8 mph 17.3 mph N/A   Clear
5:58 PM 76.8 °F - 61.2 °F 58% 30.04 in 10.0 mi North 9.2 mph - N/A   Partly Cloudy
6:58 PM 76.3 °F - 61.3 °F 60% 30.05 in 10.0 mi North 6.9 mph - N/A   Clear
7:58 PM 71.2 °F - 59.9 °F 67% 30.06 in 10.0 mi North 6.9 mph - N/A   Clear
8:58 PM 68.5 °F - 60.3 °F 75% 30.08 in 10.0 mi North 5.8 mph - N/A   Clear
9:58 PM 65.1 °F - 59.2 °F 81% 30.09 in 10.0 mi North 9.2 mph - N/A   Clear
10:58 PM 63.9 °F - 58.6 °F 83% 30.10 in 10.0 mi North 10.4 mph - N/A   Clear
11:55 PM 60.8 °F - 57.2 °F 88% 30.10 in 10.0 mi North 10.4 mph - N/A   Clear